Location: La Ronge
(55.1000°N, 105.3000°W)
Time: 12:16:57
(UTC-06:00)

Daily predictions for brighter satellites

Satellite Brightness Start Highest point End
(mag) Time Altitude Azimuth Time Altitude Azimuth Time Altitude Azimuth
SeaSat 1 3.7 22:17:26 10° S 22:21:56 35° WSW 22:26:29 10° NW
Cosmos 1758 Rocket 3.5 22:20:05 10° S 22:24:26 73° E 22:28:48 10° NNE
ISS -2.5 22:21:34 10° SW 22:24:30 31° SSE 22:27:27 10° E
ARGOS 3.5 22:19:54 10° S 22:25:19 69° WSW 22:30:46 10° NNW
CARTOSAT-1 3.7 22:22:46 10° SSE 22:27:04 68° ENE 22:31:24 10° N
COSMOS 2455 3.0 22:23:54 10° SW 22:29:56 84° NW 22:36:02 10° NE
CZ-4B R/B 3.6 22:25:22 10° NNE 22:30:28 88° ESE 22:35:41 10° SSW
Meteor 1-21 4.4 22:25:04 10° S 22:30:49 69° E 22:36:38 10° NNE
Cosmos 1766 4.0 22:29:25 10° NNW 22:33:21 54° W 22:37:16 10° S
Cosmos 2369 Rocket 3.9 22:29:04 10° NW 22:33:43 26° WSW 22:38:19 10° SSW
Cosmos 1758 3.4 22:35:26 10° NNW 22:39:35 87° W 22:43:43 10° S
Cosmos 1825 Rocket 4.4 22:36:11 10° SSW 22:40:32 54° WNW 22:44:54 10° N
CZ-4 R/B 4.0 22:35:56 10° NNE 22:40:58 81° ESE 22:46:00 10° SSW
Landsat 7 4.1 22:37:59 10° S 22:42:44 71° WSW 22:47:32 10° NNW
Cosmos 1570 Rocket 4.3 22:37:45 10° NNW 22:43:07 72° WSW 22:48:27 10° SSE
Cosmos 1190 Rocket 4.2 22:38:12 10° SSW 22:43:33 83° WNW 22:48:55 10° NNE
YAOGAN 6 4.5 22:43:07 10° SSW 22:46:21 27° W 22:49:37 10° NW
Cosmos 1842 Rocket 3.6 22:43:43 10° N 22:48:08 77° ENE 22:52:32 10° SSE
Genesis I 4.3 22:44:31 10° NW 22:48:25 43° NNE 22:52:13 10° ESE
H-2A R/B 2.1 22:45:51 10° SSE 22:50:52 77° WSW 22:56:05 10° NNW
ALOS 2 4.5 22:49:57 10° ESE 22:53:17 21° ENE 22:56:37 10° N
IGS 5A 3.5 22:49:17 10° SSE 22:53:26 82° WSW 22:57:39 10° NNW
Cosmos 1140 Rocket 3.9 22:48:29 10° S 22:53:28 46° ESE 22:58:28 10° NE
Cosmos 1544 3.2 22:51:11 10° N 22:54:59 69° ENE 22:58:27 12° SSE
Cosmos 1340 4.0 22:52:34 11° SE 22:55:28 25° E 22:58:37 10° NE
Spot 4 3.9 22:51:09 10° SSE 22:55:57 86° WSW 23:00:47 10° NNW
Terra 2.0 22:53:48 10° S 22:58:34 71° WSW 23:03:21 10° NNW
Cosmos 1470 2.9 22:56:01 10° N 22:59:54 61° ENE 23:03:22 12° SSE
Lacrosse 4 Rocket 1.4 22:56:19 10° SW 23:00:24 84° NW 23:04:35 10° NE
ATLAS 3B R/B 2.9 22:53:00 10° SW 23:00:41 78° SE 23:08:04 10° NE
Cosmos 676 Rocket 4.1 22:55:30 10° SSW 23:00:51 88° ESE 23:06:13 10° NNE
Cosmos 1805 3.7 22:57:23 10° NNW 23:01:18 60° W 23:05:12 10° S
SAR-Lupe-2 4.2 22:58:09 10° S 23:01:40 50° W 23:05:11 10° NNW
Cosmos 1980 Rocket 4.0 22:57:56 10° NNW 23:02:39 26° NNE 23:07:21 10° E
Lacrosse 5 1.9 23:03:35 10° WNW 23:08:42 85° NNE 23:13:47 10° ESE
Cosmos 2278 4.0 23:03:34 10° NNW 23:09:14 65° NE 23:14:49 10° SE
USA 234 4.4 23:09:10 10° S 23:14:41 29° SW 23:20:18 10° WNW
Cosmos 614 Rocket 4.4 23:10:41 10° S 23:15:36 46° ESE 23:20:36 10° NE
Cosmos 1092 Rocket 4.1 23:11:47 10° S 23:18:00 65° E 23:24:13 10° NNE
DMSP B5D2-2 4.1 23:15:16 10° NNE 23:20:35 77° ESE 23:25:52 10° SSW
Cosmos 2221 2.8 23:16:41 10° N 23:20:59 61° ENE 23:24:32 14° SSE
Cosmos 1697 Rocket 3.8 23:16:58 10° NNW 23:22:19 40° NE 23:27:39 10° ESE
COSMOS 2406 3.3 23:17:25 10° SSW 23:23:03 63° ESE 23:28:46 10° NE
SL-27 R/B 2.5 23:20:13 10° SSW 23:23:34 75° WNW 23:26:57 10° NNE
Nadezhda 4 Rocket 4.1 23:20:07 10° S 23:26:28 90° W 23:32:50 10° NNE
Cosmos 1943 Rocket 3.8 23:22:11 10° NW 23:26:36 25° WSW 23:31:00 10° SSW
Cosmos 1953 3.9 23:24:22 10° NNW 23:27:51 29° W 23:31:19 10° SSW
Cosmos 407 Rocket 4.4 23:23:18 10° SW 23:28:25 51° NW 23:33:29 10° NNE
Cosmos 1763 Rocket 4.1 23:25:01 10° NNW 23:30:14 52° NE 23:35:17 11° SE
S3M 4.4 23:24:14 10° N 23:30:24 54° ENE 23:35:48 13° SSE
COSMOS 2487 2.9 23:28:10 14° S 23:30:57 44° ESE 23:34:26 10° NE
Cosmos 2082 Rocket 4.1 23:31:34 10° SE 23:34:15 14° E 23:36:57 10° ENE
Lacrosse 5 rocket 1.6 23:30:39 10° WNW 23:34:45 73° N 23:39:05 10° E
Cosmos 1707 3.0 23:36:52 16° S 23:39:52 56° E 23:43:44 10° NNE
Cosmos 1656 4.2 23:35:55 10° NNW 23:41:34 57° NE 23:47:11 10° SE
Cosmos 1818 3.8 23:36:31 10° NW 23:41:56 62° SW 23:46:24 15° SSE
USA 238 DEB 3.8 23:38:46 10° SW 23:45:48 70° SE 23:52:49 10° NE
USA 238 3.8 23:38:53 10° SW 23:45:54 69° SE 23:52:54 10° NE
CZ-4B R/B 2.4 23:44:45 15° SE 23:47:35 44° ENE 23:51:09 10° N
Cosmos 374 Rocket 4.4 23:43:50 10° SW 23:48:33 71° SE 23:52:24 10° NE
ATLAS CENTAUR R/B 4.1 23:45:15 10° WNW 23:49:32 27° N 23:53:39 10° ENE
Cosmos 1378 4.3 23:49:44 16° SE 23:52:04 30° E 23:55:25 10° NNE
Cosmos 1689 Rocket 3.1 23:51:43 17° SE 23:53:57 43° ENE 23:57:05 10° N
SS 2 4.4 23:53:51 10° NW 23:56:44 85° SW 23:58:59 17° SE
